Location: Arcusa
(42.3167°N, 0.0833°W)
Time: 19:44:05
(UTC+00:00)

Cosmos 2322 Rocket - Pass Details

Date: 25 January 2020
Orbit: 831 x 852 km, 71.0° (Epoch: 21 February)

Event Time Altitude Azimuth Distance (km) Brightness Sun altitude
Rises 06:01:11 0° 215° (SW) 3,383 5.1 -14.7°
Reaches altitude 10° 06:03:39 10° 219° (SW) 2,456 4.4 -14.3°
Maximum altitude 06:09:11 57° 298° (WNW) 995 2.2 -13.3°
Drops below altitude 10° 06:14:48 10° 17° (NNE) 2,484 4.7 -12.3°
Sets 06:17:20 0° 21° (NNE) 3,425 5.5 -11.8°
